time_stamp(utc),avg(mph),gust(mph),direction(deg),12m_air_temp(f),sonic_u(cm/s),sonic_v(cm/s),sonic_w(cm/s),pressure,2m_air_temp(f),pyranometer(W/m^2)
"2017-06-07 00:00:21+00",16.5,18.5,,56.7,725,95,31,1009.44,56.7,0
"2017-06-07 00:05:21+00",16.2,18.2,,56.9,720,28,27,1009.47,56.9,0
"2017-06-07 00:10:21+00",15.1,17.1,,56.9,667,123,49,1009.51,56.9,0
"2017-06-07 00:15:21+00",16.4,18.4,,56.9,728,74,33,1009.6,56.9,0
"2017-06-07 00:20:21+00",15.8,17.8,,56.9,694,138,38,1009.63,56.9,0
"2017-06-07 00:25:21+00",17.4,19.4,,56.9,771,103,29,1009.6,56.8,0
"2017-06-07 00:30:21+00",16.6,18.6,,56.8,727,250,-8,1009.7,56.9,0
"2017-06-07 00:35:21+00",15.3,17.3,,56.9,668,122,50,1009.87,56.8,0
"2017-06-07 00:40:21+00",16.4,17.4,,56.8,733,55,34,1010.01,56.8,0
"2017-06-07 00:45:21+00",16.9,18.9,,56.9,740,177,52,1010.1,56.9,0
"2017-06-07 00:50:21+00",18.0,19.0,,56.7,794,106,32,1010.08,56.8,0
"2017-06-07 00:55:21+00",16.6,18.6,,56.6,730,126,47,1010.33,56.7,0
"2017-06-07 01:00:21+00",16.6,18.6,,56.5,709,186,29,1010.37,56.6,0
"2017-06-07 01:05:21+00",17.5,19.5,,56.5,768,151,40,1010.33,56.5,0
"2017-06-07 01:10:21+00",17.5,19.5,,56.5,776,134,39,1010.47,56.5,0
"2017-06-07 01:15:21+00",14.8,15.8,,56.6,647,137,49,1010.46,56.5,0
"2017-06-07 01:20:21+00",18.7,20.7,,56.5,839,84,25,1010.61,56.5,0
"2017-06-07 01:25:21+00",14.0,15.0,,56.6,617,97,46,1010.68,56.5,0
"2017-06-07 01:30:21+00",17.0,19.0,,56.5,755,67,18,1010.69,56.5,0
"2017-06-07 01:35:21+00",16.9,18.9,,56.5,746,74,36,1010.75,56.5,0
"2017-06-07 01:40:21+00",16.7,18.7,,56.7,752,60,46,1010.76,56.6,0
"2017-06-07 01:45:21+00",17.8,20.8,,56.5,798,121,42,1010.79,56.5,0
"2017-06-07 01:50:21+00",19.6,21.6,,56.4,873,88,34,1010.81,56.4,0
"2017-06-07 01:55:21+00",17.5,19.5,,56.4,780,88,41,1010.9,56.4,0
"2017-06-07 02:00:21+00",18.6,20.6,,56.4,833,67,42,1010.98,56.4,0
"2017-06-07 02:05:21+00",16.2,18.2,,56.5,719,113,52,1011.08,56.5,0
"2017-06-07 02:10:21+00",18.0,21.0,,56.2,799,86,55,1011.14,56.3,0
"2017-06-07 02:15:21+00",19.8,21.8,,55.8,888,55,34,1011.18,56.2,0
"2017-06-07 02:20:21+00",16.0,19.0,,55.5,707,77,47,1011.43,56,0
"2017-06-07 02:25:21+00",14.5,16.5,,55.6,652,89,50,1011.39,55.7,0
"2017-06-07 02:30:21+00",17.5,20.5,,55.4,773,166,38,1011.43,55.7,0
"2017-06-07 02:35:21+00",17.8,20.8,,55,771,243,27,1011.46,55.4,0
"2017-06-07 02:40:21+00",16.1,18.1,,55,722,70,35,1011.55,55.3,0
"2017-06-07 02:45:21+00",16.8,20.8,,54.9,744,29,53,1011.57,55.2,0
"2017-06-07 02:50:21+00",16.5,20.5,,54.9,728,72,44,1011.61,55.1,0
"2017-06-07 02:55:21+00",18.7,19.7,,54.6,825,131,18,1011.62,54.9,0
"2017-06-07 03:00:21+00",17.5,21.5,,54.6,771,107,65,1011.51,54.8,0
"2017-06-07 03:05:21+00",18.9,20.9,,54.6,822,66,43,1011.31,54.6,0
"2017-06-07 03:10:21+00",16.7,19.7,,54.8,728,86,38,1011.49,54.6,0
"2017-06-07 03:15:21+00",19.1,22.1,,55,832,80,44,1011.46,54.7,0
"2017-06-07 03:20:21+00",16.8,18.8,,54.9,724,101,46,1011.65,54.9,0
"2017-06-07 03:25:21+00",16.1,18.1,,54.8,705,76,42,1011.67,54.7,0
"2017-06-07 03:30:21+00",16.9,18.9,,54.8,734,131,38,1011.71,54.7,0
"2017-06-07 03:35:21+00",16.8,17.8,,54.7,735,24,24,1011.69,54.8,0
"2017-06-07 03:40:21+00",18.9,20.9,,54.6,835,-11,44,1011.37,54.8,0
"2017-06-07 03:45:21+00",18.0,20.0,,54.8,793,1,30,1011.5,54.6,0
"2017-06-07 03:50:21+00",19.2,21.2,,54.9,849,8,32,1011.4,54.8,0
"2017-06-07 03:55:21+00",16.4,19.4,,54.9,727,29,26,1011.46,54.7,0
"2017-06-07 04:00:21+00",16.7,19.7,,54.9,731,57,41,1011.58,54.8,0
"2017-06-07 04:05:21+00",16.4,18.4,,54.9,722,48,26,1011.56,54.8,0
"2017-06-07 04:10:21+00",14.8,15.8,,54.9,648,81,16,1011.58,54.8,0
"2017-06-07 04:15:21+00",16.6,18.6,,55,733,17,18,1011.58,54.9,0
"2017-06-07 04:20:21+00",16.0,18.0,,55.1,709,91,35,1011.47,54.9,0
"2017-06-07 04:25:21+00",14.6,16.6,,55.2,645,91,46,1011.47,55,0
"2017-06-07 04:30:21+00",15.7,18.7,,55.1,704,-40,12,1011.36,55,0
"2017-06-07 04:35:21+00",15.4,18.4,,55.1,681,84,35,1011.4,55.1,0
"2017-06-07 04:40:21+00",15.0,18.0,,55.3,657,34,29,1011.5,55.1,0
"2017-06-07 04:45:21+00",13.3,16.3,,55.4,579,124,29,1011.66,55.2,0
"2017-06-07 04:50:21+00",13.1,14.1,,55.4,575,72,31,1011.65,55.2,0
"2017-06-07 04:55:21+00",13.0,16.0,,55.3,551,161,38,1011.71,55.3,0
"2017-06-07 05:00:21+00",15.7,17.7,,55.1,667,241,21,1011.59,55.2,0
"2017-06-07 05:05:21+00",14.0,17.0,,55,616,152,28,1011.51,55.1,0
"2017-06-07 05:10:21+00",14.4,16.4,,54.8,629,117,32,1011.45,55,0
"2017-06-07 05:15:21+00",15.0,19.0,,54.9,628,254,40,1011.45,54.9,0
"2017-06-07 05:20:21+00",18.6,20.6,,54.6,810,236,39,1011.44,54.8,0
"2017-06-07 05:25:21+00",15.5,17.5,,54.4,665,208,31,1011.54,54.6,0
"2017-06-07 05:30:21+00",15.4,17.4,,54.7,672,197,21,1011.51,54.6,0
"2017-06-07 05:35:21+00",13.8,15.8,,55,602,145,46,1011.49,54.7,0
"2017-06-07 05:40:21+00",15.0,18.0,,55.1,655,210,33,1011.6,54.9,0
"2017-06-07 05:45:21+00",13.8,15.8,,55.1,596,183,43,1011.64,54.9,0
"2017-06-07 05:50:21+00",13.2,16.2,,55.1,575,181,37,1011.57,55,0
"2017-06-07 05:55:21+00",12.7,16.7,,55.2,552,154,32,1011.52,55,0
"2017-06-07 06:00:21+00",14.2,17.2,,55.3,601,220,26,1011.62,55.1,0
"2017-06-07 06:05:21+00",16.2,19.2,,55.2,651,321,27,1011.65,55,0
"2017-06-07 06:10:21+00",13.5,16.5,,55.1,545,253,20,1011.65,55,0
"2017-06-07 06:15:21+00",15.8,17.8,,55.2,651,287,30,1011.67,55,0
"2017-06-07 06:20:21+00",16.6,18.6,,55.1,659,336,35,1011.6,54.9,0
"2017-06-07 06:25:21+00",18.6,20.6,,55.2,684,462,28,1011.61,54.9,0
"2017-06-07 06:30:21+00",17.6,19.6,,55.2,654,424,25,1011.6,55,0
"2017-06-07 06:35:21+00",13.5,15.5,,55.3,498,325,38,1011.54,55,0
"2017-06-07 06:40:21+00",15.3,17.3,,55.2,569,370,30,1011.62,55,0
"2017-06-07 06:45:21+00",15.6,17.6,,55.2,517,432,27,1011.6,55,0
"2017-06-07 06:50:21+00",14.6,17.6,,55.2,517,377,29,1011.62,55,0
"2017-06-07 06:55:21+00",16.7,17.7,,55.2,580,447,33,1011.56,54.9,0
"2017-06-07 07:00:21+00",16.5,19.5,,55.1,604,412,39,1011.65,54.9,0
"2017-06-07 07:05:21+00",14.8,16.8,,55.1,456,432,21,1011.78,54.9,0
"2017-06-07 07:10:21+00",13.7,15.7,,55.1,462,370,27,1011.73,54.9,0
"2017-06-07 07:15:21+00",14.6,16.6,,55.2,509,386,49,1011.79,54.9,0
"2017-06-07 07:20:21+00",15.6,18.6,,55.1,548,407,40,1011.82,54.9,0
"2017-06-07 07:25:21+00",13.4,14.4,,55.1,374,408,12,1011.87,54.8,0
"2017-06-07 07:30:21+00",15.9,17.9,,55.1,504,450,29,1011.87,54.9,0
"2017-06-07 07:35:21+00",14.1,16.1,,55.2,431,405,30,1011.84,54.9,0
"2017-06-07 07:40:21+00",14.1,16.1,,55.1,546,308,30,1011.83,54.8,0
"2017-06-07 07:45:21+00",14.4,16.4,,55,537,347,16,1011.85,54.6,0
"2017-06-07 07:50:21+00",13.8,16.8,,55.1,535,296,24,1011.84,54.7,0
"2017-06-07 07:55:21+00",15.2,17.2,,55,573,355,21,1011.78,54.7,0
"2017-06-07 08:00:21+00",13.7,16.7,,55,430,390,22,1011.72,54.7,0
"2017-06-07 08:05:21+00",16.5,18.5,,55,575,437,28,1011.66,54.8,0
"2017-06-07 08:10:21+00",16.0,18.0,,55,577,411,43,1011.67,54.7,0
"2017-06-07 08:15:21+00",16.7,18.7,,55,571,451,30,1011.63,54.7,0
"2017-06-07 08:20:21+00",15.8,19.8,,55,569,403,31,1011.69,54.7,0
"2017-06-07 08:25:21+00",13.8,15.8,,54.9,475,368,28,1011.79,54.6,0
"2017-06-07 08:30:21+00",15.7,17.7,,55,570,394,29,1011.79,54.6,0
"2017-06-07 08:35:21+00",14.2,16.2,,55,502,369,22,1011.88,54.6,0
"2017-06-07 08:40:21+00",17.7,19.7,,55,522,523,5,1011.97,54.5,0
"2017-06-07 08:45:21+00",13.9,15.9,,54.8,409,414,28,1012,54.4,0
"2017-06-07 08:50:21+00",14.4,16.4,,54.5,416,433,8,1012.01,54.1,0
"2017-06-07 08:55:21+00",14.8,17.8,,54.5,455,426,17,1012.01,54,0
"2017-06-07 09:00:21+00",13.3,14.3,,54.5,438,366,25,1012.08,53.9,0
"2017-06-07 09:05:21+00",15.8,18.8,,54.6,472,476,34,1012.07,54,0
"2017-06-07 09:10:21+00",17.3,20.3,,54.7,521,499,7,1012.29,54.2,0
"2017-06-07 09:15:21+00",16.1,18.1,,54.6,405,529,21,1012.19,54.1,0
"2017-06-07 09:20:21+00",15.4,17.4,,54.7,450,457,-7,1012.34,54.2,0
"2017-06-07 09:25:21+00",15.6,17.6,,54.7,580,370,42,1012.38,54.2,0
"2017-06-07 09:30:21+00",10.8,12.8,,54.4,40,461,14,1012.39,54.2,0
"2017-06-07 09:35:21+00",9.7,11.7,,53.6,54,415,18,1012.53,53.6,0
"2017-06-07 09:40:21+00",10.7,11.7,,53.4,114,434,2,1012.54,53.1,0
"2017-06-07 09:45:21+00",8.7,10.7,,53.1,84,351,8,1012.64,52.8,0
"2017-06-07 09:50:21+00",10.9,11.9,,53.2,135,429,-2,1012.64,52.6,0
"2017-06-07 09:55:21+00",12.6,13.6,,53.2,189,497,-5,1012.73,52.6,0
"2017-06-07 10:00:21+00",11.4,13.4,,53.3,158,447,8,1012.73,52.7,0
"2017-06-07 10:05:21+00",10.4,12.4,,53.3,229,379,10,1012.82,52.8,0
"2017-06-07 10:10:21+00",10.5,13.5,,53.5,219,394,13,1012.92,53,0
"2017-06-07 10:15:21+00",10.7,13.7,,53.8,232,387,5,1012.87,53.3,0
"2017-06-07 10:20:21+00",12.6,14.6,,54,324,418,9,1012.89,53.6,0
"2017-06-07 10:25:21+00",14.7,16.7,,54.2,470,415,16,1012.86,53.8,0
"2017-06-07 10:30:21+00",19.2,23.2,,54.4,755,405,36,1012.89,54.2,0
"2017-06-07 10:35:21+00",14.8,15.8,,54.5,567,331,24,1012.9,54.2,0
"2017-06-07 10:40:21+00",16.1,19.1,,54.6,612,370,27,1012.89,54.5,0
"2017-06-07 10:45:21+00",16.9,19.9,,54.5,620,424,37,1013,54.5,0
"2017-06-07 10:50:21+00",16.4,18.4,,54.4,657,322,39,1013.07,54.4,0.4
"2017-06-07 10:55:21+00",15.8,17.8,,54.4,646,302,13,1013.2,54.5,0.2
"2017-06-07 11:00:21+00",12.8,15.8,,54.3,502,267,34,1013.23,54.4,0
"2017-06-07 11:05:21+00",12.9,15.9,,54.5,502,270,53,1013.26,54.5,1.2
"2017-06-07 11:10:21+00",14.6,16.6,,54.7,538,356,37,1013.13,54.7,5.9
"2017-06-07 11:15:21+00",17.9,19.9,,54.7,628,469,30,1013.18,54.8,0.3
"2017-06-07 11:20:21+00",16.6,18.6,,54.7,581,439,23,1013.29,54.8,0.1
"2017-06-07 11:25:21+00",18.2,20.2,,54.7,694,426,31,1013.28,54.9,1.7
"2017-06-07 11:30:21+00",17.4,19.4,,54.7,663,396,26,1013.33,54.9,0
"2017-06-07 11:35:21+00",15.9,17.9,,54.5,581,396,27,1013.29,54.7,0.5
"2017-06-07 11:40:21+00",16.5,19.5,,54.7,623,391,35,1013.4,54.9,0
"2017-06-07 11:45:21+00",16.7,18.7,,54.4,681,307,5,1013.42,54.7,1.1
"2017-06-07 11:50:21+00",16.1,20.1,,54.6,478,477,7,1013.45,54.7,0.3
"2017-06-07 11:55:21+00",13.9,14.9,,54.7,511,338,20,1013.55,54.9,7.8
"2017-06-07 12:00:21+00",14.7,16.7,,55,432,428,0,1013.62,55.1,15.4
"2017-06-07 12:05:21+00",16.4,18.4,,55.1,636,351,32,1013.54,55.3,32.4
"2017-06-07 12:10:21+00",17.0,20.0,,55,649,382,45,1013.54,55.3,17.3
"2017-06-07 12:15:21+00",16.4,21.4,,55.1,645,350,35,1013.59,55.4,21.8
"2017-06-07 12:20:21+00",13.5,15.5,,55.1,492,328,16,1013.72,55.4,14.8
"2017-06-07 12:25:21+00",16.2,18.2,,55.2,529,452,28,1013.77,55.5,19.5
"2017-06-07 12:30:21+00",16.0,19.0,,55.3,428,510,8,1013.82,55.6,23.4
"2017-06-07 12:35:21+00",16.8,19.8,,55.2,711,292,34,1013.87,55.6,32.6
"2017-06-07 12:40:21+00",17.7,19.7,,54.7,774,270,43,1013.84,55.4,22.4
"2017-06-07 12:45:21+00",15.2,17.2,,54.6,659,231,39,1014.03,55.3,12.8
"2017-06-07 12:50:21+00",17.1,18.1,,54.7,658,386,37,1014.04,55.2,23.5
"2017-06-07 12:55:21+00",13.7,16.7,,54.8,575,240,43,1014.07,55.2,24.5
"2017-06-07 13:00:21+00",15.5,19.5,,55.1,623,314,58,1014.15,55.5,71.7
"2017-06-07 13:05:21+00",16.1,18.1,,55.3,507,460,31,1014.19,55.8,38.9
"2017-06-07 13:10:21+00",14.5,17.5,,55.2,500,385,30,1014.2,55.7,52.3
"2017-06-07 13:15:21+00",15.1,17.1,,55,625,277,15,1014.25,55.7,44.7
"2017-06-07 13:20:21+00",14.3,15.3,,55,548,322,25,1014.28,55.6,22.1
"2017-06-07 13:25:21+00",14.8,16.8,,55.2,610,283,7,1014.34,55.5,20.4
"2017-06-07 13:30:21+00",15.9,18.9,,55.5,630,317,33,1014.42,55.8,31.6
"2017-06-07 13:35:21+00",17.3,21.3,,55.8,473,565,25,1014.55,56,42.4
"2017-06-07 13:40:21+00",16.9,19.9,,56,485,527,24,1014.59,56.4,74.8
"2017-06-07 13:45:21+00",17.4,20.4,,55.7,530,505,15,1014.48,56.3,71.6
"2017-06-07 13:50:21+00",16.5,18.5,,55.7,602,411,23,1014.57,56.4,75.6
"2017-06-07 13:55:21+00",16.6,18.6,,55.8,582,436,25,1014.59,56.3,42.4
"2017-06-07 14:00:21+00",16.7,20.7,,55.7,491,499,-1,1014.66,56.2,32.5
"2017-06-07 14:05:21+00",14.3,16.3,,55.8,438,426,37,1014.77,56.2,59.7
"2017-06-07 14:10:21+00",15.5,19.5,,56,400,534,14,1014.7,56.4,73.6
"2017-06-07 14:15:21+00",14.8,17.8,,56.1,535,366,42,1014.7,56.6,83.8
"2017-06-07 14:20:21+00",14.2,16.2,,55.8,529,343,34,1014.79,56.6,56.6
"2017-06-07 14:25:21+00",17.4,19.4,,55.8,567,488,1,1014.78,56.5,89.8
"2017-06-07 14:30:21+00",15.6,18.6,,56,606,350,28,1014.73,56.9,135.1
"2017-06-07 14:35:21+00",17.6,20.6,,56,679,389,20,1014.64,57.1,125.8
"2017-06-07 14:40:21+00",17.6,20.6,,56.1,554,497,20,1014.65,57.3,123.6
"2017-06-07 14:45:21+00",15.2,18.2,,56.2,482,428,45,1014.66,57.3,130.7
"2017-06-07 14:50:21+00",16.5,19.5,,56.3,610,403,32,1014.72,57.7,240
"2017-06-07 14:55:21+00",14.7,16.7,,56.6,490,405,36,1014.77,58.5,237.8
"2017-06-07 15:00:21+00",15.8,17.8,,56.6,562,410,29,1014.67,58.5,137.3
"2017-06-07 15:05:21+00",14.5,16.5,,56.4,483,395,8,1014.71,58,100.8
"2017-06-07 15:10:21+00",15.3,17.3,,56.3,490,438,20,1014.79,57.7,74.8
"2017-06-07 15:15:21+00",14.4,16.4,,56.3,439,412,10,1014.75,57.5,97.5
"2017-06-07 15:20:21+00",17.5,19.5,,56.7,494,535,4,1014.79,57.7,149.2
"2017-06-07 15:25:21+00",15.0,18.0,,57,514,421,47,1014.77,58.1,131.5
"2017-06-07 15:30:21+00",18.3,21.3,,57.1,546,541,12,1014.65,58.6,352.8
"2017-06-07 15:35:21+00",17.1,19.1,,57.6,482,531,11,1014.66,59.7,294.5
"2017-06-07 15:40:21+00",17.1,20.1,,57.4,432,589,5,1014.65,59.9,298.1
"2017-06-07 15:45:21+00",11.3,14.3,,57.9,262,397,41,1014.62,60.3,251.4
"2017-06-07 15:50:21+00",15.5,17.5,,57.6,460,467,15,1014.62,60.3,356.9
"2017-06-07 15:55:21+00",16.6,18.6,,57.4,495,496,-7,1014.6,60.2,698.3
"2017-06-07 16:00:21+00",16.2,17.2,,57.5,481,488,-4,1014.55,60.7,562.1
"2017-06-07 16:05:21+00",17.8,19.8,,57.7,594,486,38,1014.58,60.8,615.9
"2017-06-07 16:10:21+00",17.8,19.8,,57.9,582,488,42,1014.57,61.2,590.1
"2017-06-07 16:15:21+00",19.8,21.8,,57.9,712,494,12,1014.61,61.6,624.6
"2017-06-07 16:20:21+00",17.3,19.3,,57.6,704,334,6,1014.68,61.4,635.4
"2017-06-07 16:25:21+00",14.0,17.0,,57.8,542,299,35,1014.74,61.5,607.2
"2017-06-07 16:30:21+00",14.7,16.7,,57.9,422,458,4,1014.77,61.7,596.6
"2017-06-07 16:35:21+00",17.6,18.6,,57.6,612,457,17,1014.85,61.2,627.5
"2017-06-07 16:40:21+00",17.2,21.2,,58.3,732,270,30,1014.89,61.9,666.8
"2017-06-07 16:45:21+00",17.0,20.0,,58.3,745,165,71,1014.78,62.4,613.9
"2017-06-07 16:50:21+00",14.2,17.2,,57.8,548,307,16,1014.84,61.9,527.8
"2017-06-07 16:55:21+00",14.5,17.5,,58.2,543,334,60,1014.86,61.8,611.9
"2017-06-07 17:00:21+00",12.2,15.2,,58.2,476,254,30,1014.91,62.1,596
"2017-06-07 17:05:21+00",13.7,16.7,,58,581,178,15,1014.81,62.1,606.2
"2017-06-07 17:10:21+00",11.7,13.7,,57.8,475,202,40,1014.9,61.9,607.1
"2017-06-07 17:15:21+00",14.8,16.8,,58,578,316,15,1014.8,62.1,605.9
"2017-06-07 17:20:21+00",13.1,15.1,,58,586,14,51,1014.88,62.3,606.6
"2017-06-07 17:25:21+00",13.2,14.2,,57.7,592,17,1,1014.94,62.1,602.5
"2017-06-07 17:30:21+00",13.0,15.0,,57.8,536,242,6,1014.92,62.3,600.5
"2017-06-07 17:35:21+00",11.1,12.1,,57.8,378,288,26,1014.78,62.1,599.7
"2017-06-07 17:40:21+00",10.8,13.8,,58.4,431,211,22,1014.79,62.7,597.7
"2017-06-07 17:45:21+00",10.9,12.9,,58.2,460,145,25,1014.7,63,596.3
"2017-06-07 17:50:21+00",9.6,11.6,,58.1,336,243,21,1014.67,62.4,593.2
"2017-06-07 17:55:21+00",12.8,14.8,,58.2,545,161,9,1014.65,62.6,593.7
"2017-06-07 18:00:21+00",8.0,10.0,,58.6,322,111,31,1014.68,63,586.1
"2017-06-07 18:05:21+00",9.5,12.5,,59.2,392,124,79,1014.62,63.6,582.5
"2017-06-07 18:10:21+00",9.8,12.8,,58.9,419,92,25,1014.67,63.7,578.7
"2017-06-07 18:15:21+00",9.1,10.1,,59,398,57,22,1014.62,63.5,576.3
"2017-06-07 18:20:21+00",10.1,12.1,,59.2,427,107,29,1014.68,63.7,570.6
"2017-06-07 18:25:21+00",11.1,14.1,,59.6,490,-54,6,1014.7,63.6,566.1
"2017-06-07 18:30:21+00",13.4,15.4,,58.9,590,-101,-4,1014.63,62.9,563.8
"2017-06-07 18:35:21+00",15.1,17.1,,58.6,650,-188,-17,1014.73,62.2,565.9
"2017-06-07 18:40:21+00",12.2,13.2,,58.8,546,-29,48,1014.8,62.1,550.8
"2017-06-07 18:45:21+00",13.5,15.5,,58.4,601,-17,14,1014.79,62,546.9
"2017-06-07 18:50:21+00",13.3,15.3,,58.7,591,-57,24,1014.91,62.2,540.9
"2017-06-07 18:55:21+00",14.2,16.2,,58.5,626,-110,-1,1014.89,62.1,534.6
"2017-06-07 19:00:21+00",14.5,15.5,,58.4,598,-237,4,1014.87,62,528.5
"2017-06-07 19:05:21+00",13.9,15.9,,58.5,607,-119,-21,1014.88,61.8,519.9
"2017-06-07 19:10:21+00",12.3,13.3,,58.4,531,-82,31,1015.06,61.7,510.9
"2017-06-07 19:15:21+00",12.2,15.2,,58.7,515,-159,4,1014.96,62,500.3
"2017-06-07 19:20:21+00",12.0,14.0,,59,510,-140,8,1015.02,62.1,495.8
"2017-06-07 19:25:21+00",13.4,18.4,,58.6,586,-5,7,1015.01,62.3,485.1
"2017-06-07 19:30:21+00",13.3,15.3,,58.8,547,-228,13,1015.09,62.1,479.5
"2017-06-07 19:35:21+00",12.9,14.9,,58.9,537,-185,-17,1015.13,62.2,470.2
"2017-06-07 19:40:21+00",11.8,13.8,,58.9,496,-156,-1,1015.12,62.2,460
"2017-06-07 19:45:21+00",12.9,15.9,,59,543,-137,20,1015.17,62.3,451.2
"2017-06-07 19:50:21+00",12.0,14.0,,59,496,-195,-11,1015.14,62.4,442.7
"2017-06-07 19:55:21+00",12.4,15.4,,59.3,543,-40,10,1015.13,62.7,402.7
"2017-06-07 20:00:21+00",12.2,13.2,,59,536,-99,-3,1015.14,62.6,398.9
"2017-06-07 20:05:21+00",11.6,13.6,,59,503,-112,23,1015.12,62.3,424.2
"2017-06-07 20:10:21+00",12.8,14.8,,58.9,569,23,24,1015.16,62.4,407.7
"2017-06-07 20:15:21+00",12.3,15.3,,59.1,545,-24,18,1015.1,62.6,397.6
"2017-06-07 20:20:21+00",15.3,18.3,,59,682,-71,10,1015.09,62.3,389
"2017-06-07 20:25:21+00",14.6,16.6,,59,629,-148,-6,1015.08,62.1,380.6
"2017-06-07 20:30:21+00",13.7,15.7,,59.2,612,-11,37,1015.15,62.3,103.6
"2017-06-07 20:35:21+00",12.4,15.4,,58.9,557,-21,21,1015.12,62.2,2.9
"2017-06-07 20:40:21+00",13.6,15.6,,59.1,605,52,15,1015.19,62.2,3
"2017-06-07 20:45:21+00",12.1,15.1,,59.1,540,-40,28,1015.15,61.9,2.5
"2017-06-07 20:50:21+00",12.7,15.7,,59,557,78,8,1015.18,61.9,2
"2017-06-07 20:55:21+00",13.1,16.1,,59.1,586,-63,26,1015.24,61.8,3.5
"2017-06-07 21:00:21+00",13.2,15.2,,59.2,586,-117,23,1015.25,61.7,307.3
"2017-06-07 21:05:21+00",13.3,16.3,,59.1,590,17,16,1015.28,61.9,301
"2017-06-07 21:10:21+00",11.2,12.2,,59.1,495,38,-5,1015.21,61.8,295.9
"2017-06-07 21:15:21+00",12.0,14.0,,59.3,525,72,10,1015.25,62.1,57.3
"2017-06-07 21:20:21+00",11.4,13.4,,59.2,500,81,5,1015.29,62.1,34.6
"2017-06-07 21:25:21+00",11.8,13.8,,59.4,522,-62,22,1015.27,62.2,266.8
"2017-06-07 21:30:21+00",8.6,9.6,,59.4,374,43,19,1015.43,62.2,254.9
"2017-06-07 21:35:21+00",11.0,13.0,,59.5,480,77,8,1015.3,62.2,246.8
"2017-06-07 21:40:21+00",10.3,11.3,,59.5,451,60,45,1015.32,62.4,237.8
"2017-06-07 21:45:21+00",9.8,11.8,,59.8,424,-50,28,1015.43,62.3,228.1
"2017-06-07 21:50:21+00",10.6,11.6,,59.9,471,-37,15,1015.4,62.5,219.2
"2017-06-07 21:55:21+00",12.0,13.0,,59.7,530,60,16,1015.44,62.2,208.5
"2017-06-07 22:00:21+00",9.8,11.8,,59.8,443,-58,37,1015.47,62.1,203.7
"2017-06-07 22:05:21+00",8.4,11.4,,59.9,370,29,3,1015.48,62.1,200.9
"2017-06-07 22:10:21+00",8.0,9.0,,60,352,-54,18,1015.55,62.1,218.4
"2017-06-07 22:15:21+00",6.7,8.7,,60.3,283,67,-7,1015.54,62.6,231.3
"2017-06-07 22:20:21+00",8.1,11.1,,60.4,350,-100,6,1015.47,63.1,216
"2017-06-07 22:25:21+00",8.6,9.6,,60.3,377,15,16,1015.46,62.7,29.8
"2017-06-07 22:30:21+00",10.4,11.4,,60.2,454,101,13,1015.54,62.2,25.9
"2017-06-07 22:35:21+00",9.7,10.7,,60.2,413,128,16,1015.6,61.9,20.7
"2017-06-07 22:40:21+00",9.2,11.2,,60.1,402,92,13,1015.66,61.7,18.7
"2017-06-07 22:45:21+00",9.5,11.5,,60,406,134,22,1015.63,61.4,17.2
"2017-06-07 22:50:21+00",7.7,9.7,,60,333,82,58,1015.76,61.4,16.4
"2017-06-07 22:55:21+00",8.5,9.5,,60.1,355,141,30,1015.77,61.2,8.7
"2017-06-07 23:00:21+00",8.0,9.0,,60.2,333,128,31,1015.75,61.2,4.9
"2017-06-07 23:05:21+00",7.4,8.4,,60.3,323,87,41,1015.8,61.1,2.3
"2017-06-07 23:10:21+00",6.9,8.9,,60.4,283,101,35,1015.89,61,0.4
"2017-06-07 23:15:21+00",8.4,8.4,,60.4,378,36,33,1015.89,60.9,0
"2017-06-07 23:20:21+00",8.1,9.1,,60,353,66,8,1015.89,60.5,0
"2017-06-07 23:25:21+00",7.7,8.7,,59.9,337,60,16,1015.91,60.2,0
"2017-06-07 23:30:21+00",7.2,8.2,,59.8,301,118,10,1015.83,59.9,0
"2017-06-07 23:35:21+00",7.7,8.7,,59.8,298,148,10,1015.78,59.6,0
"2017-06-07 23:40:21+00",5.8,6.8,,59.8,244,45,22,1015.8,59.5,0
"2017-06-07 23:45:21+00",6.3,7.3,,59.8,271,39,23,1015.75,59.3,0
"2017-06-07 23:50:21+00",6.6,7.6,,59.8,286,38,15,1015.84,59.2,0
"2017-06-07 23:55:21+00",6.6,7.6,,59.9,295,-12,4,1015.88,59.2,0
